SAUDISAT 1C

Satellite information

Favourite Embed

Satellite Type and Status

PAYLOADIN ORBIT

Key statistics

Satellite SAUDISAT 1C at a glance.

Uptime

8234

Days in orbit

Revolutions

≈ 14.8

Per day

Orbit

LEO

Low Earth Orbit

Inclination

64.6

Latest

Satellite identification and parameters

Extended collection of information and parameters for SAUDISAT 1C.

Object identification

Identified? True

Debris? False

Object name: SAUDISAT 1C

International designator: 2002-058C

Object number (NORAD): 27607

Object ID (CCSDS): 27607

Country: SAUDI ARABIA (SAUD)

Current information (Y/N): Y

RCS size: SMALL

Orbital parameters

Period: 97.186 minutes

Inclination: 64.5526 deg

SMA: 7002.139 km

Apoapsis: 665.455 km

Periapsis: 582.553 km

RAAN: 121.2367 deg

Eccentricy: 0.0059198

Argument of periapsis: 328.4004 deg

Mean anomaly: 31.3552 deg

Mean motion: 14.81687633 rev/day

Mean motion (dot): 0.00001231 rev/day2

B* drag term: 0.00016997 1/REarth

Two-line elements (TLE)

Creation date: July 5, 2025, 5:45 p.m.

Reference frame: TEME

Reference center: EARTH

Epoch: July 5, 2025, 6:26 a.m. UTC

TLE line 0: 0 SAUDISAT 1C

TLE line 1: 1 27607U 02058C 25186.26852236 .00001231 00000-0 16997-3 0 9995

TLE line 2: 2 27607 64.5526 121.2367 0059198 328.4004 31.3552 14.81687633213032

Live tracking on map

Real-time ground track for satellite SAUDISAT 1C.

In-orbit conjunctions

There are no conjunctions computed for SAUDISAT 1C, at the moment. Check back to stay up to date, as we update our databases every day.

Go to all conjunctions

Associated space launch

Technology satellite for OHB-System, Germany.

SAUDISAT 1C was lifted into orbit during the mission ‘Dnepr | AATiS-OSCAR-49’, on board a Dnepr space rocket.

The launch took place on Dec. 20, 2002, 5 p.m. from 109/95.

For more information about the launch, click the button.

Launch to space Dnepr | AATiS-OSCAR-49
Dnepr | AATiS-OSCAR-49

Agency: N/A

Status: Launch Successful

Launch date: Dec. 20, 2002, 5 p.m. UTC

Rocket: Dnepr

Launch pad: 109/95

Location: Baikonur Cosmodrome, Republic of Kazakhstan

...

Latest news about this satellite

There are no fresh news available about this satellite. Check back as we update our databases every day.


Newsletter sign-up

Weekly statistics, charts and insights to help you stay on top of the space industry.